Weather History for Mather AFB, CA

Change the Weather History Date:

Friday, March 1, 2013

  Actual Average Record
Temperature  
Mean Temperature 52 °F -  
Max Temperature 68 °F 58 °F 68 °F (2013)
Min Temperature 37 °F 37 °F 28 °F (2011)
Degree Days  
Heating Degree Days 12    
Growing Degree Days 2 (Base 50)    
Moisture  
Dew Point 40 °F    
Average Humidity 72    
Maximum Humidity 93    
Minimum Humidity 42    
Precipitation  
Precipitation 0.00 in - - ()
Sea Level Pressure  
Sea Level Pressure 30.36 in    
Wind  
Wind Speed 1 mph (East)    
Max Wind Speed 5 mph    
Max Gust Speed -    
Visibility 10 miles    
Events      
Averages and records for this station are not official NWS values.
T = Trace of Precipitation, MM = Missing Value Source: NWS Daily Summary

Daily Weather History Graph

Daily Weather History Graph

Search for Another Location

Airport:

Trip Planner

Search our weather history database for the weather conditions in past years. The results will help you decide how hot, cold, wet, or windy it might be!

Date:

Astronomy

Mar. 01, 2013 Rise Set
Actual Time 6:36 AM PST 5:58 PM PST
Civil Twilight 6:10 AM PST 6:25 PM PST
Nautical Twilight 5:39 AM PST 6:55 PM PST
Astronomical Twilight 5:08 AM PST 7:26 PM PST
Moon 10:33 PM PST (3/1) 8:30 AM PST (3/1)
Length of Visible Light 12h 14m
Length of Day
11h 21m
Waning Gibbous, 82% of the Moon is Illuminated
Mar 1
Waning Gibbous
Mar 4
Last Quarter
Mar 11
New
Mar 19
First Quarter
Mar 27
Full

Hourly Weather History & Observations

Time (PST) Temp. Windchill Dew Point Humidity Pressure Visibility Wind Dir Wind Speed Gust Speed Precip Events Conditions
12:46 AM 41.0 °F 38.0 °F 37.4 °F 87% 30.42 in 10.0 mi ESE 4.6 mph - N/A   Clear
1:46 AM 42.8 °F - 37.4 °F 81% 30.42 in 10.0 mi Calm Calm - N/A   Partly Cloudy
2:46 AM 39.2 °F - 37.4 °F 93% 30.41 in 10.0 mi Calm Calm - N/A   Clear
3:46 AM 39.2 °F - 37.4 °F 93% 30.41 in 10.0 mi Calm Calm - N/A   Clear
4:46 AM 37.4 °F - 35.6 °F 93% 30.41 in 10.0 mi Calm Calm - N/A   Clear
5:46 AM 37.4 °F - 35.6 °F 93% 30.41 in 10.0 mi Calm Calm - N/A   Clear
6:45 AM 37.4 °F 33.8 °F 35.6 °F 93% 30.41 in 10.0 mi NE 4.6 mph - N/A   Clear
7:45 AM 44.6 °F - 39.2 °F 81% 30.41 in 10.0 mi Calm Calm - N/A   Clear
8:47 AM 51.8 °F - 41.0 °F 67% 30.40 in 10.0 mi Calm Calm - N/A   Clear
9:47 AM 57.2 °F - 41.0 °F 55% 30.39 in 10.0 mi Calm Calm - N/A   Clear
10:45 AM 59.0 °F - 41.0 °F 51% 30.39 in 10.0 mi Calm Calm - N/A   Clear
11:45 AM 64.4 °F - 41.0 °F 42% 30.36 in 10.0 mi West 4.6 mph - N/A   Clear
12:45 PM 66.2 °F - 42.8 °F 43% 30.33 in 10.0 mi Calm Calm - N/A   Clear
1:57 PM 68.0 °F - 44.6 °F 43% 30.29 in 10.0 mi Calm Calm - N/A   Partly Cloudy
3:45 PM 53.6 °F - 41.0 °F 62% 30.27 in 10.0 mi Calm Calm - N/A   Clear
6:50 PM 59.0 °F - 44.6 °F 59% 30.26 in 10.0 mi ESE 4.6 mph - N/A   Scattered Clouds
7:55 PM 50.0 °F - 44.6 °F 82% 30.26 in 10.0 mi Calm Calm - N/A   Scattered Clouds
8:45 PM 51.8 °F - 44.6 °F 76% 30.27 in 10.0 mi Calm Calm - N/A   Scattered Clouds
11:55 PM 46.4 °F - 41.0 °F 81% 30.26 in 10.0 mi Calm Calm - N/A   Scattered Clouds